Content
SEND FEEDBACK

Daily
Averages
Monthly
Summary
United States of America

OAKLEY, IDAHO


Home > North America > United States > Idaho
Elevation: 4550 feet     Latitude: 42 15N     Longitude: 113 53W

WEATHER
 
SELECT A DAY
Number of Records: 175,508;   Date Range: 1/1/95 - 10/19/14
 
SHARE

PRINT THIS DATA

[ ← Previous Day ]
WEATHER ALMANAC - FEBRUARY 5, 2013
[ Next Day → ]
[ °C ]   °F
Weather ElementAverageHighLow
Temperature38.4 °F52 °F (3:53 pm)28.9 °F (7:53 am)
Dewpoint30 °F34 °F (6:53 pm)27 °F (7:53 am)
Humidity74.5 %92 % (2:53 am)47 % (3:53 pm)
Barometer29.96 in30.06 in (1:53 am)29.86 in (3:53 pm)
Wind Speed2.8 mph10.4 mph (12:53 pm)
Weather ElementAverage
Visibility9.8 mi
Wind DirectionENE (83.6 °)

Weather ElementTotal
Precipitation---
Heating Degree Days24.6 (Base 65)
Averaged from 22 records on February 5, 2013
WEATHER CONDITIONS BREAKOUT
WIND DIRECTION BREAKOUT
WEATHER BY HOUR - FEBRUARY 5, 2013
[ °C ]   °F
Local TimeTemperatureDewpointHumidityBarometerVisibilityWind DirectionWind SpeedGust SpeedPrecipitationEventsConditions
1:53 AM33.1 °F30.0 °F89 %30.06 in10.0 miNNE (30°)3.5 mphOvercast
2:53 AM30.9 °F28.9 °F92 %30.05 in10.0 miCalmScattered Clouds
3:53 AM30.9 °F28.9 °F92 %30.02 in10.0 miCalmMostly Cloudy
4:53 AM33.1 °F28.9 °F85 %30.02 in10.0 miCalmOvercast
5:53 AM32.0 °F28.9 °F88 %30.03 in10.0 miCalmPartly Cloudy
6:53 AM32.0 °F28.0 °F85 %30.03 in10.0 miCalmClear
7:53 AM28.9 °F27.0 °F92 %30.05 in10.0 miCalmClear
8:53 AM32.0 °F27.0 °F82 %30.04 in10.0 miCalmClear
9:53 AM36.0 °F28.0 °F73 %30.02 in10.0 miNNE (20°)3.5 mphClear
10:53 AM42.1 °F28.0 °F58 %29.99 in10.0 miENE (70°)3.5 mphClear
11:53 AM46.9 °F28.0 °F48 %29.96 in10.0 miCalmClear
12:53 PM50.0 °F32.0 °F50 %29.92 in10.0 miNNW (340°)10.4 mphClear
1:53 PM48.9 °F32.0 °F52 %29.90 in10.0 miNNE (20°)6.9 mphClear
2:53 PM51.1 °F32.0 °F48 %29.87 in10.0 miNNE (20°)5.8 mphClear
3:53 PM52.0 °F32.0 °F47 %29.86 in10.0 miNorth (360°)5.8 mphClear
4:53 PM48.9 °F33.1 °F54 %29.86 in10.0 miNNE (20°)3.5 mphClear
5:53 PM44.1 °F33.1 °F65 %29.87 in10.0 miNNW (330°)4.6 mphClear
6:53 PM37.9 °F34.0 °F86 %29.89 in10.0 miNNW (340°)3.5 mphClear
7:53 PM34.0 °F32.0 °F92 %29.92 in10.0 miCalmClear
9:53 PM32.0 °F30.0 °F92 %29.94 in9.0 miCalmClear
10:53 PM30.9 °F28.9 °F92 %29.93 in7.0 miCalmClear
11:53 PM37.0 °F30.0 °F76 %29.92 in10.0 miWNW (290°)10.4 mphClear
Hourly data recorded from KBYI, located miles away from Oakley, Idaho







STORIES FROM OUR PARTNERS